Regional Weather Roundup
Issued by NWS

Home | Current Version | Previous Version | Text Only | Print | Product List | Glossary On
Versions: 1 2 3 4 5 6 7 8 9 10 11 12 13 14 15 16 17 18 19 20 21 22 23 24 25 26 27 28 29 30 31 32 33 34 35 36 37 38 39 40 41 42 43 44 45 46 47 48 49 50
000
ASUS45 KABQ 301010
RWRNM
NEW MEXICO REGIONAL WEATHER ROUNDUP
NATIONAL WEATHER SERVICE ALBUQUERQUE NM
400 AM MDT THU JUL 30 2015

NOTE: "FAIR" MEANS FEW OR NO CLOUDS BELOW 12,000 FEET AGL WITH NO
       SIGNIFICANT WEATHER OR OBSTRUCTIONS TO VISION.

      THIS PRODUCT IS RELEASED AS TWO VERSIONS.  ONE VERSION NEAR
      THE TOP OF THE HOUR CONTAINING PRELIMINARY DATA FROM ALBUQUERQUE
      AND OTHER STATIONS.  A FINAL VERSION WITH ADDITIONAL DATA IS
      ISSUED ABOUT 10 MINUTES AFTER THE HOUR.

NMZ501-503-504-510>518-301100-
NORTHWEST PLATEAU/NORTHCENTRAL MOUNTAINS

CITY           SKY/WX    TMP DP  RH WIND       PRES   REMARKS
FARMINGTON     CLEAR     61  48  62 NE6       30.33F
LOS ALAMOS     MOCLDY    57  56  97 S5        30.46R
SANTA FE       NOT AVBL
TAOS           CLOUDY    57  46  67 N3        30.48S
ANGEL FIRE     PTSUNNY   51  51  97 CALM      30.55S

$$
NMZ402-403-502-505>509-301100-
WESTCENTRAL MOUNTAINS/SOUTHWEST MOUNTAINS

CITY           SKY/WX    TMP DP  RH WIND       PRES   REMARKS
GALLUP         LGT RAIN  61  58  90 CALM      30.38S
GRANTS         CLOUDY    60  59  96 S8        30.43R
SILVER CITY      N/A     64  61  88 N3        30.30S

$$
NMZ407-409-411-412-301100-
SOUTHERN DESERTS

CITY           SKY/WX    TMP DP  RH WIND       PRES   REMARKS
LORDSBURG      FAIR      64  63  94 S7        30.21F
DEMING         CLOUDY    68  63  84 SE7       30.23S
LAS CRUCES     CLOUDY    66  64  91 W12       30.30R
HOLLOMAN AFB   MOCLDY    71  62  74 N14       30.23F
T OR C         CLOUDY    64  63  96 E7        30.28F

$$
NMZ519>523-301100-
CENTRAL VALLEYS/CENTRAL HIGHLANDS

CITY           SKY/WX    TMP DP  RH WIND       PRES   REMARKS
ALBUQUERQUE    CLOUDY    67  57  70 E13       30.36R
DOUBLE EAGLE   CLOUDY    61  59  91 NE3       30.39R
MORIARTY ARPT    N/A     60  55  84 CALM      30.43S
CLINES CORNERS CLOUDY    57  55  93 E10       30.44F
BELEN          NOT AVBL
SOCORRO        CLOUDY    64  62  93 CALM      30.32R

$$
NMZ524>526-539-540-301100-
SOUTHCENTRAL MOUNTAINS

CITY           SKY/WX    TMP DP  RH WIND       PRES   REMARKS
RUIDOSO          N/A    N/A N/A N/A MISG        N/A

$$
NMZ527>531-301100-
NORTHEAST HIGHLANDS/NORTHEAST PLAINS

CITY           SKY/WX    TMP DP  RH WIND       PRES   REMARKS
LAS VEGAS      LGT RAIN  57  55  93 S6        30.45F
RATON          CLOUDY    57  55  93 NE7       30.41S
CLAYTON        CLOUDY    67  66  97 NE5       30.34S FOG

$$
NMZ532>537-301100-
EASTCENTRAL PLAINS

CITY           SKY/WX    TMP DP  RH WIND       PRES   REMARKS
TUCUMCARI      RAIN      65  63  93 NW12      30.30R FOG
CANNON AFB     MOCLDY    66  64  94 N13       30.27S
CLOVIS AIRPORT MOCLDY    68  61  77 N10       30.29S

$$
NMZ028-029-538-301100-
SOUTHEAST PLAINS

CITY           SKY/WX    TMP DP  RH WIND       PRES   REMARKS
ROSWELL        PTCLDY    71  63  75 N16       30.22R
CARLSBAD       CLEAR     71  59  65 SW6       30.14R
HOBBS          PTCLDY    75  63  64 CALM      30.20R


$$



USA.gov is the U.S. government's official web portal to all federal, state and local government web resources and services.